W1ERB-13 Weather Reports


time (UTC)temp
F
wind
direction
speed
knots
gust
knots
rain 1hr
in
rain 24hr
in
rain mn
in
humidity
%
barometer
mb
20260504175647 69 248 2.6 4.3 0.00 0.00 0.00 34 1009.2
20260504175143 69 243 0.9 1.7 0.00 0.00 0.00 33 1009.3
20260504174642 68 243 0.9 1.7 0.00 0.00 0.00 35 1009.4
20260504174138 69 276 3.5 6.1 0.00 0.00 0.00 34 1009.5
20260504173635 68 281 6.1 7.8 0.00 0.00 0.00 32 1009.7
20260504173133 69 273 4.3 5.2 0.00 0.00 0.00 31 1009.5
20260504172629 68 208 1.7 2.6 0.00 0.00 0.00 33 1009.7
20260504172126 68 251 4.3 6.1 0.00 0.00 0.00 33 1009.6
20260504171622 68 231 4.3 6.1 0.00 0.00 0.00 32 1009.6
20260504171120 68 276 3.5 5.2 0.00 0.00 0.00 34 1009.7
20260504170615 67 238 5.2 6.1 0.00 0.00 0.00 32 1009.8
20260504170113 67 283 4.3 6.1 0.00 0.00 0.00 32 1009.7
20260504150959 66 277 6.1 7.8 0.00 0.00 0.00 31 1011.0
20260504150456 66 236 2.6 2.6 0.00 0.00 0.00 33 1011.0
20260504140922 63 126 5.2 7.0 0.00 0.00 0.00 35 1011.1
20260504140418 64 264 2.6 4.3 0.00 0.00 0.00 36 1011.2
20260504130343 58 212 2.6 4.3 0.00 0.00 0.00 45 1012.3
20260504120306 51 217 0.0 0.9 0.00 0.00 0.00 61 1012.8
20260504110224 46 229 0.9 0.9 0.00 0.00 0.00 64 1012.4
20260504100148 46 203 0.9 1.7 0.00 0.00 0.00 63 1011.9
20260504090111 41 167 0.9 0.9 0.00 0.00 0.00 73 1011.6
20260504081541 41 204 0.0 0.0 0.00 0.00 0.00 77 1011.7
20260504081037 41 204 0.0 0.0 0.00 0.00 0.00 77 1011.8
20260504080534 41 195 0.9 0.9 0.00 0.00 0.00 76 1011.8
20260504050346 41 198 0.9 0.9 0.00 0.00 0.00 79 1011.5
20260504045844 40 198 0.0 0.9 0.00 0.00 0.00 78 1011.6
20260504045338 40 198 0.0 0.0 0.00 0.00 0.00 78 1011.6
20260504044836 41 198 0.0 0.9 0.00 0.00 0.00 78 1011.3
20260504044333 41 196 0.9 0.9 0.00 0.00 0.00 78 1011.5
20260504043830 41 196 0.9 0.9 0.00 0.00 0.00 79 1011.6
20260504043327 41 198 0.9 0.9 0.00 0.00 0.00 80 1011.5
20260504042824 40 198 0.9 0.9 0.00 0.00 0.00 80 1011.5
20260504042320 41 199 0.9 0.9 0.00 0.00 0.00 79 1011.6
20260504041817 41 199 0.0 0.0 0.00 0.00 0.00 79 1011.6
20260504041313 41 199 0.0 0.9 0.00 0.00 0.00 80 1011.7
20260504040810 41 199 0.0 0.9 0.00 0.00 0.00 80 1011.5
20260504040307 41 199 0.0 0.0 0.00 0.00 0.00 81 1011.5
20260504035803 41 199 0.0 0.0 0.00 0.00 0.00 80 1011.4
20260504035300 41 199 0.0 0.0 0.00 0.00 0.00 80 1011.3
20260504034757 41 199 0.0 0.9 0.00 0.00 0.00 80 1011.3
20260504034255 41 199 0.9 0.9 0.00 0.00 0.00 80 1011.5
20260504033752 41 200 0.0 0.0 0.00 0.00 0.00 80 1011.4
20260504033250 42 199 0.9 0.9 0.00 0.00 0.00 79 1011.3
20260504032746 42 200 0.0 0.0 0.00 0.00 0.00 80 1011.3
20260504032243 42 200 0.0 0.9 0.00 0.00 0.00 79 1011.4
20260504031740 42 201 0.0 0.0 0.00 0.00 0.00 79 1011.3
20260504031238 42 201 0.9 0.9 0.00 0.00 0.00 78 1011.3
20260504030733 42 200 0.9 0.9 0.00 0.00 0.00 76 1011.3
20260504030231 42 200 0.9 0.9 0.00 0.00 0.00 76 1011.2
20260504025727 43 201 0.0 0.0 0.00 0.00 0.00 77 1011.2
20260504025224 43 201 0.9 0.9 0.00 0.00 0.00 76 1011.2
20260504024721 43 201 0.0 0.9 0.00 0.00 0.00 76 1011.3
20260504024217 43 202 0.0 0.0 0.00 0.00 0.00 76 1011.1
20260504023714 43 202 0.0 0.0 0.00 0.00 0.00 76 1011.2
20260504023210 43 202 0.0 0.9 0.00 0.00 0.00 76 1011.0
20260504022707 43 201 0.0 0.9 0.00 0.00 0.00 76 1011.0
20260504022203 43 202 0.9 0.9 0.00 0.00 0.00 75 1011.2
20260504021701 43 202 0.0 0.0 0.00 0.00 0.00 74 1011.2
20260504021157 44 202 0.0 0.0 0.00 0.00 0.00 74 1011.0
20260504020654 44 202 0.0 0.9 0.00 0.00 0.00 73 1010.9
20260504020150 44 202 0.0 0.0 0.00 0.00 0.00 73 1010.9
20260504015647 44 202 0.0 0.0 0.00 0.00 0.00 73 1011.0
20260504015143 44 202 0.0 0.9 0.00 0.00 0.00 72 1010.8
20260504014639 44 202 0.9 0.9 0.00 0.00 0.00 72 1010.9
20260504014136 45 202 0.0 0.0 0.00 0.00 0.00 71 1010.8
20260504013634 45 202 0.0 0.0 0.00 0.00 0.00 70 1010.8
20260504013131 45 202 0.0 0.0 0.00 0.00 0.00 69 1010.9
20260504012628 46 202 0.0 0.0 0.00 0.00 0.00 68 1010.7
20260504012126 46 202 0.0 0.0 0.00 0.00 0.00 66 1010.5
20260504011622 46 202 0.0 0.9 0.00 0.00 0.00 65 1010.6
20260504011119 46 202 0.0 0.0 0.00 0.00 0.00 61 1010.7
20260504010615 46 202 0.0 0.0 0.00 0.00 0.00 63 1010.3
20260504010111 46 202 0.0 0.0 0.00 0.00 0.00 61 1010.3
20260504005608 47 202 0.0 0.0 0.00 0.00 0.00 59 1010.3
20260504005105 47 202 0.0 0.0 0.00 0.00 0.00 58 1010.1
20260504004603 47 202 0.0 0.0 0.00 0.00 0.00 56 1010.0
20260504004100 47 202 0.0 0.0 0.00 0.00 0.00 56 1010.0
20260504003556 47 202 0.9 0.9 0.00 0.00 0.00 55 1010.0
20260504003053 47 202 0.0 0.0 0.00 0.00 0.00 56 1009.9
20260504002549 48 202 0.0 0.0 0.00 0.00 0.00 52 1009.6
20260504002047 48 202 0.9 0.9 0.00 0.00 0.00 51 1009.6
20260504001545 48 203 0.0 0.9 0.00 0.00 0.00 50 1009.7
20260504001040 49 202 0.0 0.9 0.00 0.00 0.00 47 1009.7
20260504000538 50 202 0.0 0.9 0.00 0.00 0.00 43 1009.3
20260504000035 50 203 0.0 0.0 0.00 0.00 0.00 41 1009.6
20260503235533 50 203 0.0 0.0 0.00 0.00 0.00 42 1009.4
20260503235030 51 202 0.0 0.0 0.00 0.00 0.00 43 1009.4
20260503234527 51 197 0.9 1.7 0.00 0.00 0.00 38 1009.4
20260503234026 52 204 0.0 0.0 0.00 0.00 0.00 38 1009.3
20260503233521 53 223 0.0 0.0 0.00 0.00 0.00 37 1009.3
20260503233018 53 238 1.7 1.7 0.00 0.00 0.00 35 1009.4
20260503232515 54 206 0.0 0.0 0.00 0.00 0.00 36 1009.2
20260503232012 54 225 0.9 0.9 0.00 0.00 0.00 36 1009.3
20260503231509 54 219 0.9 0.9 0.00 0.00 0.00 34 1009.1
20260503231001 55 223 0.9 1.7 0.00 0.00 0.00 34 1009.0
20260503230457 55 223 0.9 1.7 0.00 0.00 0.00 33 1009.1
20260503225955 55 233 2.6 2.6 0.00 0.00 0.00 33 1009.3
20260503225451 55 246 2.6 2.6 0.00 0.00 0.00 33 1009.2
20260503224947 55 250 4.3 5.2 0.00 0.00 0.00 33 1009.2
20260503224444 55 224 3.5 4.3 0.00 0.00 0.00 33 1009.1
20260503223942 55 254 3.5 4.3 0.00 0.00 0.00 33 1009.0
20260503223440 55 237 2.6 4.3 0.00 0.00 0.00 34 1009.0
20260503222935 55 242 1.7 1.7 0.00 0.00 0.00 35 1009.0
20260503222434 55 245 0.9 1.7 0.00 0.00 0.00 35 1009.1
20260503221931 55 261 4.3 5.2 0.00 0.00 0.00 33 1009.2
20260503221429 54 263 3.5 5.2 0.00 0.00 0.00 33 1008.9
20260503220926 55 260 4.3 6.1 0.00 0.00 0.00 34 1009.0
20260503220422 54 292 3.5 4.3 0.00 0.00 0.00 33 1008.9
20260503215920 54 236 5.2 6.1 0.00 0.00 0.00 34 1009.0
20260503215416 55 260 4.3 6.1 0.00 0.00 0.00 34 1009.1
20260503214914 55 230 2.6 2.6 0.00 0.00 0.00 34 1009.0
20260503214411 55 218 2.6 2.6 0.00 0.00 0.00 34 1009.1
20260503213909 54 211 0.9 0.9 0.00 0.00 0.00 34 1009.2
20260503213407 54 279 2.6 4.3 0.00 0.00 0.00 34 1009.1
20260503212903 54 255 1.7 2.6 0.00 0.00 0.00 34 1008.9
20260503212401 54 104 2.6 5.2 0.00 0.00 0.00 34 1008.9
20260503211857 54 221 2.6 2.6 0.00 0.00 0.00 36 1009.0
20260503211354 54 266 0.9 1.7 0.00 0.00 0.00 35 1009.3
20260503210849 54 283 7.0 7.8 0.00 0.00 0.00 34 1009.3
20260503210347 53 287 2.6 5.2 0.00 0.00 0.00 35 1009.0
20260503205842 54 284 3.5 5.2 0.00 0.00 0.00 35 1009.0
20260503205339 55 266 2.6 4.3 0.00 0.00 0.00 35 1008.7
20260503204835 56 234 1.7 2.6 0.00 0.00 0.00 35 1008.7
20260503204332 55 227 0.9 0.9 0.00 0.00 0.00 35 1008.9
20260503203830 56 270 1.7 2.6 0.00 0.00 0.00 35 1008.7
20260503203327 57 225 2.6 4.3 0.00 0.00 0.00 34 1008.8
20260503202824 56 226 2.6 2.6 0.00 0.00 0.00 34 1009.0
20260503202322 57 255 5.2 6.1 0.00 0.00 0.00 33 1009.1
20260503201820 56 248 4.3 6.1 0.00 0.00 0.00 34 1009.0
20260503201316 55 267 4.3 5.2 0.00 0.00 0.00 34 1008.6
20260503200814 54 241 0.9 1.7 0.00 0.00 0.00 37 1008.9
20260503200310 53 232 6.1 6.1 0.00 0.00 0.00 35 1009.0
20260503195807 52 268 3.5 4.3 0.00 0.00 0.00 37 1008.8
20260503195304 54 134 2.6 4.3 0.00 0.00 0.00 35 1008.9
20260503194801 54 309 4.3 6.1 0.00 0.00 0.00 36 1009.0
20260503194257 53 251 1.7 1.7 0.00 0.00 0.00 38 1008.8
20260503193753 54 241 6.1 7.8 0.00 0.00 0.00 35 1008.8
20260503193249 53 286 2.6 4.3 0.00 0.00 0.00 35 1008.7
20260503192745 53 357 3.5 5.2 0.00 0.00 0.00 37 1008.8
20260503192240 53 271 4.3 6.1 0.00 0.00 0.00 36 1008.7
20260503191738 55 256 1.7 1.7 0.00 0.00 0.00 34 1008.9
20260503191235 56 288 3.5 5.2 0.00 0.00 0.00 34 1008.8
20260503190731 55 240 3.5 4.3 0.00 0.00 0.00 37 1008.9
20260503190228 55 232 5.2 7.0 0.00 0.00 0.00 34 1008.7
20260503185726 58 280 6.1 7.0 0.00 0.00 0.00 32 1008.5
20260503185221 54 273 4.3 5.2 0.00 0.00 0.00 35 1008.8
20260503184716 56 266 5.2 7.0 0.00 0.00 0.00 34 1008.6
20260503184212 54 262 4.3 6.1 0.00 0.00 0.00 36 1008.7
20260503183709 54 319 7.8 8.7 0.00 0.00 0.00 36 1008.6
20260503183206 54 268 3.5 5.2 0.00 0.00 0.00 36 1008.7
20260503182704 56 246 3.5 5.2 0.00 0.00 0.00 35 1008.7
20260503182203 55 215 2.6 4.3 0.00 0.00 0.00 34 1008.5
20260503181658 54 225 1.7 2.6 0.00 0.00 0.00 35 1008.7
20260503181155 53 265 4.3 5.2 0.00 0.00 0.00 38 1008.6
20260503180652 53 223 0.9 1.7 0.00 0.00 0.00 38 1008.8
20260503180151 53 220 3.5 5.2 0.00 0.00 0.00 36 1008.8